Weather Service Report


817 
ASUS44 KLZK 031905
RWRLZK

WEATHER ROUNDUP FOR ARKANSAS
NATIONAL WEATHER SERVICE LITTLE ROCK AR
200 PM CDT THU SEP 03 2015

NOTE: "FAIR" INDICATES FEW OR NO CLOUDS BELOW 12,000 FEET WITH NO
SIGNIFICANT WEATHER AND/OR OBSTRUCTIONS TO VISIBILITY.

ARZ001-003-010-029-032000-
NORTHWEST ARKANSAS
  
CITY           SKY/WX    TMP DP  RH WIND       PRES   REMARKS
FAYETTEVILLE   MOSUNNY   86  69  56 S8        30.01F HX  90           
FORT SMITH     SUNNY     90  68  48 E6        29.96F HX  94           
HARRISON       MOSUNNY   88  66  48 S7        30.02F HX  90           
BENTONVILLE    MOSUNNY   88  64  45 S9        30.02F HX  89           
ROGERS         PTSUNNY   86  68  54 VRB3      30.02F HX  89           
SILOAM SPGS    MOSUNNY   88  66  48 S7        29.99F HX  90           
HIGHFILL       PTSUNNY   85  69  58 S10       30.01F HX  89           
SPRINGDALE     MOSUNNY   86  68  54 SE5G12    30.03F HX  89           
$$

ARZ004-005-016-032000-
NORTH CENTRAL ARKANSAS
  
CITY           SKY/WX    TMP DP  RH WIND       PRES   REMARKS
BATESVILLE     SUNNY     91  70  49 S3        29.99F HX  97           
FLIPPIN        SUNNY     91  64  40 S5        29.98F HX  93           
MTN HOME       MOSUNNY   87  66  49 VRB5      29.99F HX  89           
$$

ARZ040-041-032000-
WEST CENTRAL ARKANSAS
  
CITY           SKY/WX    TMP DP  RH WIND       PRES   REMARKS
MENA           MOSUNNY   93  64  38 SE5       30.00F HX  95           
MOUNT IDA      MOSUNNY   91  64  40 CALM      29.97F HX  92           
$$

ARZ009-017-025-026-028-032000-
NORTHEAST ARKANSAS
  
CITY           SKY/WX    TMP DP  RH WIND       PRES   REMARKS
JONESBORO      SUNNY     89  68  49 CALM      29.97F HX  93           
NEWPORT        SUNNY     92  69  46 S7        29.99F HX  96           
WALNUT RIDGE   MOSUNNY   91  68  46 SE7       29.97F HX  95           
BLYTHEVILLE    MOSUNNY   92  70  48 CALM      29.98F HX  97           
$$

ARZ022-023-033-042-044-032000-
CENTRAL ARKANSAS
  
CITY           SKY/WX    TMP DP  RH WIND       PRES   REMARKS
LITTLE ROCK    MOSUNNY   95  68  41 SE6       29.97F HX  99           
N LITTLE ROCK  MOSUNNY   91  70  49 S2        29.97F HX  97           
JACKSONVILLE   MOSUNNY   91  67  46 CALM      29.97F HX  94           
SEARCY         SUNNY     94  69  44 VRB3      29.99F HX  99           
HOT SPRINGS    MOSUNNY   92  66  42 VRB7      29.98F HX  94           
RUSSELLVILLE   MOSUNNY   90  68  48 VRB5      29.97F HX  94           
$$

ARZ036-032000-
EAST ARKANSAS
  
CITY           SKY/WX    TMP DP  RH WIND       PRES   REMARKS
WEST MEMPHIS   PTSUNNY   90  71  53 CALM      29.97F HX  96           
$$

ARZ050-053-066-070-073-032000-
SOUTHWEST ARKANSAS
  
CITY           SKY/WX    TMP DP  RH WIND       PRES   REMARKS
ARKADELPHIA    FAIR      96  67  38 VRB6      29.97F HX 100           
CAMDEN         MOSUNNY   93  66  40 CALM      29.97F HX  96           
TEXARKANA      PTSUNNY   94  65  38 S9        29.96F HX  96           
EL DORADO      MOSUNNY   93  64  38 NE5       29.96F HX  94           
DE QUEEN       MOSUNNY   90  66  45 CALM      29.95F HX  92           
$$

ARZ056-057-069-032000-
SOUTHEAST ARKANSAS
  
CITY           SKY/WX    TMP DP  RH WIND       PRES   REMARKS
PINE BLUFF     MOSUNNY   90  70  51 SE5       29.97F HX  95           
STUTTGART      SUNNY     91  66  43 E5        29.98F HX  94           
MONTICELLO     MOSUNNY   93  68  43 S6        29.96F HX  97           

$$



Return to Home page


Western Regional Climate Center, wrcc@dri.edu